Location: Bushey
(51.6333°N, 0.3667°W)
Time: 17:07:45
(UTC+00:00)

ARIANE 5 R/B - Pass Details

Date: 03 March 2021
Orbit: 621 x 655 km, 98.2° (Epoch: 15 April)

Event Time Altitude Azimuth Distance (km) Brightness Sun altitude
Exits shadow 20:21:41 27° 25° (NNE) 1,274 4.1 -24.6°
Drops below altitude 10° 20:24:11 10° 0° (N) 2,076 5.5 -25.0°
Sets 20:26:33 0° 352° (N) 2,995 6.5 -25.3°
